カタログに戻る

STARLINK-34767

運用中通信VLEO
NORAD 66507·PAYLOAD·🇺🇸 United States

打ち上げ Nov 15, 2025 から Cape Canaveral Space Force Station

Loading…

次のパス (今後24時間)

TLE

最新Source: CelesTrak SupGP

元期: Sep 14, 2026, 22:37 UTC

1 66507C 25263Y   26257.94284722 -.00012771  00000+0 -46253-3 0  2571
2 66507  43.0024   2.1415 0001557 268.5001 316.6279 15.27587523    12

AllMySatでSTARLINK-34767をリアルタイム追跡

Download on the App Store